Terug naar catalogus

STARLINK-3953

ActiefCommunicatieVLEO
NORAD 52559·PAYLOAD·🇺🇸 United States

Gelanceerd May 13, 2022 vanaf Vandenberg Space Force Base

Loading…

Volgende Passages (komende 24 uur)

TLE

VersSource: CelesTrak SupGP

Epoch: Sep 14, 2026, 20:29 UTC

1 52559C 22051AC  26257.85395833 -.00028177  00000+0 -80624-3 0  2578
2 52559  53.1601 343.9979 0001141  82.3920 266.1013 15.35410233    16

Volg STARLINK-3953 in realtime met AllMySat

Download on the App Store